Regional Weather Roundup
Issued by NWS

Home | Current Version | Previous Version | Text Only | Print | Product List | Glossary Off
Versions: 1 2 3 4 5 6 7 8 9 10 11 12 13 14 15 16 17 18 19 20 21 22 23 24 25 26 27 28 29 30 31 32 33 34 35 36 37 38 39 40 41 42 43 44 45 46 47 48 49 50

000
ASUS43 KMKX 220510
RWRWI

WISCONSIN REGIONAL WEATHER ROUNDUP
NATIONAL WEATHER SERVICE MILWAUKEE/SULLIVAN WI
1100 PM CST SAT JAN 21 2017

NOTE: "FAIR" INDICATES FEW OR NO CLOUDS BELOW 12,000 FEET WITH NO
SIGNIFICANT WEATHER AND/OR OBSTRUCTIONS TO VISIBILITY.

WIZ001-002-006>008-014>016-023>028-220600-
NORTHWEST WISCONSIN

CITY           SKY/WX    TMP DP  RH WIND       PRES   REMARKS
SUPERIOR ARPT  CLOUDY    35  35 100 NE7       29.55R FOG     WCI  29
ASHLAND        FOG       34  34 100 W3        29.54R VSB 1/4
HAYWARD        FOG       35  33  92 CALM      29.52R VSB 1/2
SIREN          FOG       34  34  99 CALM      29.54R VSB 3/4
CUMBERLAND     FOG       32  32 100 CALM      29.52R VSB 1/2
RICE LAKE      FOG       33  33 100 CALM      29.53S VSB 1/4
CHETEK         FOG       33  33 100 CALM      29.52S VSB 1/2
LADYSMITH      FOG       35  34  99 CALM      29.52S VSB 1/2
EAU CLAIRE     FOG       34  32  92 CALM      29.51S VSB 1/4
MENOMONIE        N/A    N/A N/A N/A MISG        N/A
NEW RICHMOND   DRZL/FOG  33  33 100 CALM      29.54R VSB 1/2
OSCEOLA        FOG       34  34 100 CALM      29.56S VSB 1/2
$$

WIZ003>005-009-010-017-018-220600-
NORTH CENTRAL WISCONSIN

CITY           SKY/WX    TMP DP  RH WIND       PRES   REMARKS
MANITOWISH WTR FOG       34  34 100 CALM      29.50R VSB 1/2
ARBOR VITAE    FOG       37  36  97 CALM      29.50R VSB 1/2
WOODRUFF       FOG       37  36  97 CALM      29.50R VSB 1/2
RHINELANDER    FOG       35  35 100 CALM      29.49F VSB 1/4
EAGLE RIVER    FOG       34  34 100 CALM      29.49S VSB 1/2
LAND O LAKES   FOG       35  35 100 CALM      29.51S VSB 3/4
PHILLIPS       FOG       34  34 100 CALM      29.50R VSB 3/4
TOMAHAWK       FOG       33  33  97 CALM      29.51R VSB 1/2
MEDFORD        FOG       33  33  99 CALM      29.50R VSB 1/4
MERRILL        FOG       34  34 100 CALM        N/A  VSB 1/4
$$

WIZ029-030-035-036-043>047-220600-
CENTRAL WISCONSIN

CITY           SKY/WX    TMP DP  RH WIND       PRES   REMARKS
WAUSAU         FOG       35  35 100 CALM      29.51R VSB 1/4
MOSINEE        FOG       34  34 100 S5        29.53R VSB 1/4 WCI  30
MARSHFIELD     FOG       36  35  96 SW3       29.51R VSB 1/4
STEVENS POINT  FOG       36  36 100 S7        29.53S VSB 1/4 WCI  30
WAUPACA        FOG       36  35  96 CALM      29.55R VSB 1/2
WAUTOMA        FOG       35  34  96 CALM      29.56R VSB 1/4
WISC RAPIDS    FOG       38  38 100 SW6       29.54R VSB 1/4 WCI  33
CAMP DOUGLAS   CLOUDY    39  39  99 S6        29.54R WCI  35
$$

WIZ011>013-019>022-031-037>040-048>050-220600-
NORTHEAST WISCONSIN

CITY           SKY/WX    TMP DP  RH WIND       PRES   REMARKS
ANTIGO         FOG       33  33 100 CALM      29.51S VSB 1/2
SHAWANO        FOG       36  35  96 CALM      29.54S VSB 1/2
OCONTO         CLOUDY    34  34  99 CALM      29.54S
STURGEON BAY   CLOUDY    39  37  93 W6        29.55R FOG     WCI  35
GREEN BAY      FOG       37  37 100 SE3       29.54S VSB 1/4
MANITOWOC      FOG       40  39  97 MISG      29.57R VSB 1/2
APPLETON       FOG       34  34 100 S6        29.54R VSB 1/2 WCI  29
CLINTONVILLE   FOG       34  34 100 CALM      29.54R VSB 1/2
OSHKOSH        CLOUDY    39  38  96 SW6       29.55R FOG     WCI  35
$$

WIZ032>034-041-042-053>061-220600-
SOUTHWEST WISCONSIN

CITY           SKY/WX    TMP DP  RH WIND       PRES   REMARKS
LA CROSSE      CLOUDY    40  37  89 S5        29.54R
SPARTA         CLOUDY    37  37 100 S6        29.55R WCI  33
VIROQUA        CLOUDY    37  37 100 SW7       29.54R VSB 1/4 WCI  31
BOSCOBEL       FOG       37  36  96 CALM      29.57R VSB 1/2
PRAIRIE DU CHI FOG       37  37  97 CALM      29.56S VSB 1
PLATTEVILLE    CLOUDY    38  38 100 S5        29.57S VSB 1/2 WCI  35
$$

WIZ056-057-062-063-064-067-068-220600-
SOUTH CENTRAL WISCONSIN

CITY           SKY/WX    TMP DP  RH WIND       PRES   REMARKS
REEDSBURG      CLOUDY    39  39 100 CALM      29.55S FOG
BARABOO/DELLS  CLOUDY    39  39  99 S3        29.56R FOG
LONE ROCK      FOG       37  36  96 CALM      29.57S VSB 1/4
MINERAL POINT  FOG       41  41 100 S3        29.56S VSB 1/4
MADISON        DRIZZLE   41  40  96 CALM      29.58S FOG
MIDDLETON      CLOUDY    42  42 100 SW5       29.57S
WATERTOWN      CLOUDY    40  40 100 S3        29.58R FOG
MONROE         FOG       39  37  93 S6        29.57S VSB 1/4 WCI  35
JANESVILLE     CLOUDY    41  41 100 S5        29.58S
$$

WIZ051-052-058>065-066-070>072-220600-
SOUTHEAST WISCONSIN

CITY           SKY/WX    TMP DP  RH WIND       PRES   REMARKS
MILWAUKEE      CLOUDY    44  40  85 W6        29.59R
WAUKESHA       CLOUDY    39  37  93 CALM      29.59S FOG
MILWAUKEE/TIMM CLOUDY    41  37  87 SW3       29.58S
RACINE         CLOUDY    42  39  89 W9        29.60R
KENOSHA        CLOUDY    42  40  92 W7        29.59S FOG
FOND DU LAC    CLOUDY    39  37  92 S6        29.56S WCI  35
SHEBOYGAN      CLOUDY    41  39  93 SW8       29.57R
WEST BEND      CLOUDY    41  41 100 SW3       29.57S
JUNEAU         CLOUDY    39  38  97 S6        29.57S FOG     WCI  34
$$

LSZ147-162-220600-
LAKE SUPERIOR

STATION/POSITION TIME  TEMP    WIND        PRES    WAVE
                       AIR SEA DIR/SP/G            HT/PER
                 (UTC) (F)     (DEG/KT/KT) (MB)    (FT/S)
DEVILS ISLAND    0500   35      40/ 10/ 11 1000.9R
PORT WING        0430   34      40/  5/  6 1000.7S
SAXON HARBOR     0440   33      CALM  /  1 1000.0R
$$

LMZ867-665-643>646-220600-
LAKE MICHIGAN

STATION/POSITION TIME  TEMP    WIND        PRES    WAVE
                       AIR SEA DIR/SP/G            HT/PER
                 (UTC) (F)     (DEG/KT/KT) (MB)    (FT/S)
NORTHPORT PIER   0440   38        CALM     1000.3R
SISTER BAY       0450   39     240/ 10/ 12   N/A
KEWAUNEE LAKESHO 0448   36     170/  3/  5 1000.4R
SHEBOYGAN LAKESH 0500   44     240/  7/  8 1001.4R
PORT WASHINGTON  0440   43     250/  6/ 11 1002.7R
KENOSHA   LAKESH 0500   42     270/  6/ 13 1002.4
$$

TC  - TEMPERATURE IN CELSIUS
VSB - VISIBILITY IN STATUTE MILES
WCI - WIND CHILL INDEX
HX  - HEAT INDEX





USA.gov is the U.S. government's official web portal to all federal, state and local government web resources and services.